YN7ZFC-13 Weather Reports


time (UTC)temp
C
wind
direction
speed
KPH
gust
KPH
rain 1hr
cm
rain 24hr
cm
rain mn
cm
humidity
%
barometer
mb
20260504160409 29 80 20.9 0.0 0.00 0.00 0.00 62 1012.0
20260504150407 27 10 6.4 0.0 0.00 0.00 0.00 69 1012.0
20260504140406 26 90 6.4 0.0 0.00 0.00 0.00 69 1012.0
20260504130404 23 90 12.9 0.0 0.00 0.00 0.00 76 1012.0
20260504110400 23 90 14.5 0.0 0.00 0.00 0.00 72 1011.0
20260504100358 23 110 12.9 0.0 0.00 0.00 0.00 72 1011.0
20260504081354 22 126 8.0 17.7 0.00 0.00 0.00 69 1011.0
20260504080354 23 126 8.0 17.7 0.00 0.00 0.00 69 1011.0
20260504070352 25 126 8.0 17.7 0.00 0.00 0.00 69 1012.0
20260504050348 28 110 17.7 0.0 0.00 0.00 0.00 68 1013.0
20260504045348 28 110 17.7 0.0 0.00 0.00 0.00 67 1013.0
20260504044348 28 110 17.7 0.0 0.00 0.00 0.00 65 1013.0
20260504043347 29 110 17.7 0.0 0.00 0.00 0.00 63 1013.0
20260504042347 30 110 17.7 0.0 0.00 0.00 0.00 61 1013.0
20260504041347 30 110 17.7 0.0 0.00 0.00 0.00 58 1013.0
20260504040346 30 110 17.7 0.0 0.00 0.00 0.00 54 1013.0
20260504035346 30 110 17.7 0.0 0.00 0.00 0.00 54 1013.0
20260504034346 30 110 17.7 0.0 0.00 0.00 0.00 54 1013.0
20260504033345 29 110 17.7 0.0 0.00 0.00 0.00 51 1013.0
20260504032345 29 120 17.7 0.0 0.00 0.00 0.00 49 1012.0
20260504031345 29 120 17.7 0.0 0.00 0.00 0.00 49 1012.0
20260504030344 29 120 17.7 0.0 0.00 0.00 0.00 49 1012.0
20260504025344 29 120 17.7 0.0 0.00 0.00 0.00 49 1012.0
20260504024344 29 120 17.7 0.0 0.00 0.00 0.00 49 1012.0
20260504023344 29 120 17.7 0.0 0.00 0.00 0.00 49 1011.0
20260504022344 29 120 17.7 0.0 0.00 0.00 0.00 49 1011.0
20260504021343 29 120 17.7 0.0 0.00 0.00 0.00 49 1011.0
20260504020343 28 120 17.7 0.0 0.00 0.00 0.00 49 1011.0
20260504015342 28 120 17.7 0.0 0.00 0.00 0.00 49 1011.0
20260504014342 28 120 17.7 0.0 0.00 0.00 0.00 49 1011.0
20260504013342 29 120 17.7 0.0 0.00 0.00 0.00 49 1011.0
20260504012341 30 120 17.7 0.0 0.00 0.00 0.00 49 1010.0
20260504011341 30 120 17.7 0.0 0.00 0.00 0.00 49 1010.0
20260504010341 30 120 17.7 0.0 0.00 0.00 0.00 49 1010.0
20260504005340 30 120 17.7 0.0 0.00 0.00 0.00 49 1010.0
20260504004340 31 120 17.7 0.0 0.00 0.00 0.00 49 1009.0
20260504003339 32 120 20.9 0.0 0.00 0.00 0.00 44 1009.0
20260504002339 32 120 20.9 0.0 0.00 0.00 0.00 43 1008.0
20260504001339 32 120 20.9 0.0 0.00 0.00 0.00 42 1008.0
20260504000338 32 120 20.9 0.0 0.00 0.00 0.00 42 1008.0
20260503235338 32 120 20.9 0.0 0.00 0.00 0.00 42 1008.0
20260503234338 32 120 20.9 0.0 0.00 0.00 0.00 42 1008.0
20260503233337 33 120 20.9 0.0 0.00 0.00 0.00 41 1007.0
20260503232337 33 120 20.9 0.0 0.00 0.00 0.00 41 1007.0
20260503231337 33 120 20.9 0.0 0.00 0.00 0.00 41 1008.0
20260503230337 33 120 20.9 0.0 0.00 0.00 0.00 41 1008.0
20260503225336 33 120 20.9 0.0 0.00 0.00 0.00 41 1008.0
20260503224336 33 120 20.9 0.0 0.00 0.00 0.00 41 1008.0
20260503223336 34 120 20.9 0.0 0.00 0.00 0.00 41 1008.0
20260503222335 34 120 20.9 0.0 0.00 0.00 0.00 41 1007.0
20260503221335 34 100 20.9 0.0 0.00 0.00 0.00 41 1007.0
20260503220335 34 100 20.9 0.0 0.00 0.00 0.00 41 1007.0
20260503215334 34 100 20.9 0.0 0.00 0.00 0.00 41 1007.0
20260503214334 34 100 20.9 0.0 0.00 0.00 0.00 41 1008.0
20260503213333 34 100 20.9 0.0 0.00 0.00 0.00 41 1008.0
20260503212333 34 100 20.9 0.0 0.00 0.00 0.00 41 1008.0
20260503211332 34 100 20.9 0.0 0.00 0.00 0.00 41 1008.0
20260503210332 34 100 20.9 0.0 0.00 0.00 0.00 41 1008.0
20260503205332 34 100 20.9 0.0 0.00 0.00 0.00 42 1008.0
20260503204331 34 100 20.9 0.0 0.00 0.00 0.00 44 1008.0
20260503203330 34 100 20.9 0.0 0.00 0.00 0.00 46 1008.0
20260503202330 34 100 20.9 0.0 0.00 0.00 0.00 49 1009.0
20260503201330 34 90 17.7 0.0 0.00 0.00 0.00 52 1009.0
20260503200330 35 90 17.7 0.0 0.00 0.00 0.00 52 1009.0
20260503195329 35 90 17.7 0.0 0.00 0.00 0.00 52 1009.0
20260503194329 32 90 17.7 0.0 0.00 0.00 0.00 52 1009.0
20260503193329 33 90 17.7 0.0 0.00 0.00 0.00 52 1009.0
20260503192329 33 90 17.7 0.0 0.00 0.00 0.00 52 1010.0
20260503191328 33 90 17.7 0.0 0.00 0.00 0.00 52 1010.0
20260503190328 33 90 17.7 0.0 0.00 0.00 0.00 52 1010.0
20260503185327 33 90 17.7 0.0 0.00 0.00 0.00 52 1010.0
20260503184327 33 90 17.7 0.0 0.00 0.00 0.00 52 1010.0
20260503183327 31 90 17.7 0.0 0.00 0.00 0.00 54 1011.0
20260503182326 31 90 17.7 0.0 0.00 0.00 0.00 54 1011.0
20260503181326 32 90 17.7 0.0 0.00 0.00 0.00 54 1011.0
20260503180326 32 90 17.7 0.0 0.00 0.00 0.00 54 1011.0
20260503175325 31 90 17.7 0.0 0.00 0.00 0.00 55 1011.0
20260503174325 32 90 17.7 0.0 0.00 0.00 0.00 55 1012.0
20260503173324 31 90 17.7 0.0 0.00 0.00 0.00 56 1012.0
20260503172324 32 90 17.7 0.0 0.00 0.00 0.00 56 1013.0
20260503171324 30 90 17.7 0.0 0.00 0.00 0.00 57 1013.0
20260503170324 31 90 17.7 0.0 0.00 0.00 0.00 57 1013.0